RCH915 EGVA-KSUU

Flight info

Callsign RCH915
Flight time N/A
Altitude 30000
Route MAXOB DCT NUMPI DCT EGT DCT IBROD/M074F300 DCT H5814 DCT H6019 DCT H6122/M074F320 DCT BAXER DCT H6329 DCT H6434 DCT H6540/M074F340 DCT RAVBA DCT H6650 DCT GIGOM DCT EPMAN/N0426F340 DCT YXP DCT 6670N DCT 6577N DCT YZS/N0434F360 DCT YEK DCT YYL DCT POLLE DCT YPA DCT TAGOT DCT SEFFY/N0431F380 DCT RESLE DCT GLUES DCT BARNR DCT KU69I DCT ANAHO WEBGO2
Aircraft C17/H-SDE1E2FGHIJ5RTUWXY/LB1D1

Departure

Time 2026-05-05 08:44
Airport RAF Fairford (EGVA)

Arrival

Time N/A
Airport Travis Air Force Base (KSUU)
Time Latitude Longitude Altitude Speed Heading
2026-05-05 08:33 51.67973 -1.77059 261 ft 0 kts 52°
2026-05-05 08:40 51.67974 -1.77058 261 ft 0 kts 51°
2026-05-05 08:41 51.67989 -1.77050 261 ft 4 kts
2026-05-05 08:41 51.68027 -1.77089 261 ft 4 kts 325°
2026-05-05 08:41 51.68027 -1.77090 261 ft 0 kts 325°
2026-05-05 08:41 51.68033 -1.77097 261 ft 4 kts 325°
2026-05-05 08:42 51.68081 -1.77102 261 ft 11 kts 18°
2026-05-05 08:42 51.68169 -1.77023 260 ft 18 kts 31°
2026-05-05 08:42 51.68285 -1.76914 259 ft 8 kts 30°
2026-05-05 08:42 51.68340 -1.76892 259 ft 8 kts 348°
2026-05-05 08:43 51.68384 -1.76935 258 ft 7 kts 308°
2026-05-05 08:43 51.68393 -1.76989 258 ft 4 kts 272°
2026-05-05 08:43 51.68393 -1.77005 259 ft 0 kts 268°
2026-05-05 08:43 51.68389 -1.77159 260 ft 53 kts 266°
2026-05-05 08:44 51.68370 -1.78251 271 ft 140 kts 270°
2026-05-05 08:44 51.68316 -1.80202 388 ft 206 kts 270°
2026-05-05 08:44 51.68213 -1.82886 668 ft 279 kts 269°
2026-05-05 08:44 51.68138 -1.86364 1261 ft 340 kts 271°
2026-05-05 08:45 51.68101 -1.90440 2124 ft 384 kts 271°
2026-05-05 08:45 51.68092 -1.94858 3047 ft 402 kts 272°
2026-05-05 08:45 51.68112 -1.99442 4030 ft 416 kts 272°
2026-05-05 08:45 51.68162 -2.04158 5072 ft 426 kts 273°
2026-05-05 08:46 51.68241 -2.08960 6126 ft 433 kts 274°
2026-05-05 08:46 51.68348 -2.13840 7172 ft 438 kts 274°
2026-05-05 08:46 51.68479 -2.18698 8204 ft 442 kts 274°
2026-05-05 08:46 51.68636 -2.23655 9292 ft 440 kts 274°
2026-05-05 08:47 51.68805 -2.28342 10226 ft 392 kts 275°
2026-05-05 08:47 51.68971 -2.32437 10859 ft 342 kts 275°
2026-05-05 08:47 51.69136 -2.36036 11270 ft 303 kts 276°
2026-05-05 08:47 51.69454 -2.39190 11431 ft 271 kts 295°
2026-05-05 08:48 51.70565 -2.41388 11370 ft 246 kts 332°
2026-05-05 08:48 51.72143 -2.41962 11177 ft 231 kts 11°
2026-05-05 08:48 51.73528 -2.40777 11007 ft 232 kts 50°
2026-05-05 08:48 51.74113 -2.38415 10866 ft 236 kts 89°
2026-05-05 08:49 51.73619 -2.35913 10730 ft 240 kts 130°
2026-05-05 08:49 51.72247 -2.34461 10608 ft 240 kts 169°
2026-05-05 08:49 51.70616 -2.34721 10473 ft 240 kts 209°
2026-05-05 08:49 51.69455 -2.36571 10350 ft 239 kts 249°
2026-05-05 08:50 51.69289 -2.39160 10254 ft 240 kts 288°
2026-05-05 08:50 51.70249 -2.41455 10360 ft 254 kts 326°
2026-05-05 08:50 51.71864 -2.42365 10431 ft 247 kts
2026-05-05 08:50 51.73496 -2.41551 10430 ft 250 kts 28°
2026-05-05 08:51 51.75131 -2.40706 10414 ft 252 kts
2026-05-05 08:51 51.76871 -2.40570 10390 ft 251 kts
2026-05-05 08:51 51.78616 -2.40548 10392 ft 251 kts 360°
2026-05-05 08:51 51.80357 -2.40551 10388 ft 249 kts 359°
2026-05-05 08:52 51.82085 -2.40588 10387 ft 246 kts 358°
2026-05-05 08:52 51.83802 -2.40665 10380 ft 248 kts 358°
2026-05-05 08:52 51.85529 -2.40781 10385 ft 249 kts 356°
2026-05-05 08:52 51.87260 -2.40937 10386 ft 248 kts 356°
2026-05-05 08:53 51.88981 -2.41130 10389 ft 247 kts 355°
2026-05-05 08:53 51.90698 -2.41363 10385 ft 249 kts 354°
2026-05-05 08:53 51.92399 -2.41630 10387 ft 251 kts 354°
2026-05-05 08:53 51.94129 -2.41943 10393 ft 248 kts 353°
2026-05-05 08:54 51.95842 -2.42292 10388 ft 248 kts 352°
2026-05-05 08:54 51.97546 -2.42677 10384 ft 248 kts 351°
2026-05-05 08:54 51.99253 -2.43104 10365 ft 249 kts 351°
2026-05-05 08:54 52.00973 -2.43575 10367 ft 249 kts 350°
2026-05-05 08:55 52.02670 -2.44077 10366 ft 247 kts 348°
2026-05-05 08:55 52.04357 -2.44615 10341 ft 249 kts 348°
2026-05-05 08:55 52.06053 -2.45195 10376 ft 246 kts 346°
2026-05-05 08:55 52.07707 -2.45801 10715 ft 247 kts 345°
2026-05-05 08:56 52.09370 -2.46454 11061 ft 251 kts 344°
2026-05-05 08:56 52.11060 -2.47168 11408 ft 250 kts 341°
2026-05-05 08:56 52.12536 -2.48598 11737 ft 251 kts 312°
2026-05-05 08:56 52.13670 -2.50764 12124 ft 251 kts 310°
2026-05-05 08:57 52.14898 -2.52804 12483 ft 254 kts 317°
2026-05-05 08:57 52.16263 -2.54698 12848 ft 262 kts 319°
2026-05-05 08:57 52.17643 -2.56625 13214 ft 259 kts 317°
2026-05-05 08:57 52.18981 -2.58573 13569 ft 257 kts 316°
2026-05-05 08:58 52.20304 -2.60496 13912 ft 261 kts 317°
2026-05-05 08:58 52.21673 -2.62471 14241 ft 263 kts 316°
2026-05-05 08:58 52.23038 -2.64437 14555 ft 264 kts 317°
2026-05-05 08:58 52.24429 -2.66453 14896 ft 268 kts 316°
2026-05-05 08:59 52.25829 -2.68481 15236 ft 271 kts 316°
2026-05-05 08:59 52.27237 -2.70527 15576 ft 270 kts 316°
2026-05-05 08:59 52.28648 -2.72570 15911 ft 274 kts 316°
2026-05-05 08:59 52.30084 -2.74652 16260 ft 279 kts 316°
2026-05-05 09:00 52.31537 -2.76768 16614 ft 279 kts 315°
2026-05-05 09:00 52.32985 -2.78873 16962 ft 279 kts 315°
2026-05-05 09:00 52.34430 -2.80976 17306 ft 284 kts 315°
2026-05-05 09:00 52.35917 -2.83147 17685 ft 287 kts 314°
2026-05-05 09:01 52.37408 -2.85321 18037 ft 287 kts 315°
2026-05-05 09:01 52.38904 -2.87504 18396 ft 289 kts 316°
2026-05-05 09:01 52.40406 -2.89700 18719 ft 291 kts 315°
2026-05-05 09:01 52.41917 -2.91912 19047 ft 292 kts 315°
2026-05-05 09:02 52.43434 -2.94132 19375 ft 293 kts 315°
2026-05-05 09:02 52.44954 -2.96360 19691 ft 294 kts 315°
2026-05-05 09:02 52.46477 -2.98595 20038 ft 295 kts 315°
2026-05-05 09:02 52.47993 -3.00825 20371 ft 297 kts 315°
2026-05-05 09:03 52.49536 -3.03091 20727 ft 297 kts 315°
2026-05-05 09:03 52.51068 -3.05342 21069 ft 296 kts 315°
2026-05-05 09:03 52.52609 -3.07614 21422 ft 299 kts 315°
2026-05-05 09:03 52.54169 -3.09916 21787 ft 303 kts 315°
2026-05-05 09:04 52.55741 -3.12235 22133 ft 304 kts 315°
2026-05-05 09:04 52.57318 -3.14565 22503 ft 305 kts 315°
2026-05-05 09:04 52.58879 -3.16873 22864 ft 307 kts 315°
2026-05-05 09:04 52.60476 -3.19239 23243 ft 311 kts 315°
2026-05-05 09:05 52.62089 -3.21628 23624 ft 313 kts 315°
2026-05-05 09:05 52.63709 -3.24031 23950 ft 314 kts 315°
2026-05-05 09:05 52.65332 -3.26440 24267 ft 314 kts 316°
2026-05-05 09:05 52.66955 -3.28855 24579 ft 316 kts 316°
2026-05-05 09:06 52.68599 -3.31301 24912 ft 320 kts 316°
2026-05-05 09:06 52.70251 -3.33763 25248 ft 321 kts 316°
2026-05-05 09:06 52.71913 -3.36241 25584 ft 322 kts 316°
2026-05-05 09:06 52.73568 -3.38713 25923 ft 321 kts 316°
2026-05-05 09:07 52.75205 -3.41155 26255 ft 322 kts 316°
2026-05-05 09:07 52.76874 -3.43653 26610 ft 326 kts 316°
2026-05-05 09:07 52.78560 -3.46182 26967 ft 329 kts 317°
2026-05-05 09:07 52.80257 -3.48725 27320 ft 329 kts 317°
2026-05-05 09:08 52.81959 -3.51278 27673 ft 332 kts 317°
2026-05-05 09:08 52.83674 -3.53855 28024 ft 335 kts 317°
2026-05-05 09:08 52.85406 -3.56463 28402 ft 337 kts 317°
2026-05-05 09:08 52.87121 -3.59046 28776 ft 339 kts 318°
2026-05-05 09:09 52.88865 -3.61674 29150 ft 340 kts 318°
2026-05-05 09:09 52.90621 -3.64325 29549 ft 343 kts 318°
2026-05-05 09:09 52.92393 -3.67001 29937 ft 346 kts 319°
2026-05-05 09:09 52.94181 -3.69708 30307 ft 348 kts 318°
2026-05-05 09:10 52.95970 -3.72419 30630 ft 349 kts 317°
2026-05-05 09:10 52.97756 -3.75128 30968 ft 346 kts 317°
2026-05-05 09:10 52.99534 -3.77825 31302 ft 347 kts 317°
2026-05-05 09:10 53.01330 -3.80557 31474 ft 358 kts 317°
2026-05-05 09:11 53.03175 -3.83366 31409 ft 359 kts 317°
2026-05-05 09:11 53.06766 -3.88841 31349 ft 348 kts 317°
2026-05-05 09:11 53.08566 -3.91589 31096 ft 354 kts 317°
2026-05-05 09:12 53.10373 -3.94353 30857 ft 352 kts 317°
2026-05-05 09:12 53.12156 -3.97082 30695 ft 345 kts 317°
2026-05-05 09:12 53.13914 -3.99777 30529 ft 344 kts 317°
2026-05-05 09:12 53.15686 -4.02497 30276 ft 348 kts 317°
2026-05-05 09:13 53.17460 -4.05223 30108 ft 344 kts 317°
2026-05-05 09:13 53.20903 -4.10520 30089 ft 336 kts 316°
2026-05-05 09:14 53.24450 -4.15997 30183 ft 364 kts 315°
2026-05-05 09:14 53.28212 -4.21810 30263 ft 370 kts 316°
2026-05-05 09:15 53.31985 -4.27660 30282 ft 369 kts 316°
2026-05-05 09:15 53.35757 -4.33523 30278 ft 371 kts 315°
2026-05-05 09:16 53.39506 -4.39364 30284 ft 370 kts 315°
2026-05-05 09:16 53.43269 -4.45243 30283 ft 370 kts 315°
2026-05-05 09:17 53.47031 -4.51133 30281 ft 370 kts 315°
2026-05-05 09:17 53.50788 -4.57033 30281 ft 369 kts 315°
2026-05-05 09:18 53.54519 -4.62908 30283 ft 371 kts 315°
2026-05-05 09:18 53.58281 -4.68842 30282 ft 369 kts 315°
2026-05-05 09:19 53.62017 -4.74755 30283 ft 369 kts 315°
2026-05-05 09:19 53.65762 -4.80694 30294 ft 370 kts 314°
2026-05-05 09:20 53.69464 -4.86582 30291 ft 367 kts 314°
2026-05-05 09:20 53.73181 -4.92508 30288 ft 369 kts 314°
2026-05-05 09:21 53.76914 -4.98474 30291 ft 368 kts 314°
2026-05-05 09:21 53.80625 -5.04420 30291 ft 368 kts 314°
2026-05-05 09:22 53.84345 -5.10398 30292 ft 369 kts 314°
2026-05-05 09:22 53.88037 -5.16345 30289 ft 368 kts 314°
2026-05-05 09:23 53.91732 -5.22311 30304 ft 365 kts 313°
2026-05-05 09:23 53.95401 -5.28252 30307 ft 366 kts 313°
2026-05-05 09:24 53.99089 -5.34236 30312 ft 366 kts 313°
2026-05-05 09:24 54.02754 -5.40202 30310 ft 365 kts 313°
2026-05-05 09:25 54.06403 -5.46157 30312 ft 366 kts 313°
2026-05-05 09:25 54.10074 -5.52159 30311 ft 365 kts 313°
2026-05-05 09:26 54.13727 -5.58150 30328 ft 364 kts 312°
2026-05-05 09:26 54.17335 -5.64165 30327 ft 362 kts 311°
2026-05-05 09:27 54.20898 -5.70188 30329 ft 364 kts 311°
2026-05-05 09:27 54.24501 -5.76260 30337 ft 363 kts 311°
2026-05-05 09:28 54.28082 -5.82321 30332 ft 363 kts 311°
2026-05-05 09:28 54.31673 -5.88413 30335 ft 364 kts 311°
2026-05-05 09:29 54.35260 -5.94514 30349 ft 362 kts 311°
2026-05-05 09:29 54.38807 -6.00563 30352 ft 362 kts 311°
2026-05-05 09:30 54.42379 -6.06670 30356 ft 363 kts 311°
2026-05-05 09:30 54.45949 -6.12789 30357 ft 362 kts 311°
2026-05-05 09:31 54.49512 -6.18912 30358 ft 362 kts 311°
2026-05-05 09:31 54.53076 -6.25054 30362 ft 363 kts 311°
2026-05-05 09:32 54.56609 -6.31156 30363 ft 362 kts 311°
2026-05-05 09:32 54.60160 -6.37311 30379 ft 362 kts 312°
2026-05-05 09:33 54.63718 -6.43489 30384 ft 364 kts 312°
2026-05-05 09:33 54.67271 -6.49675 30379 ft 362 kts 313°
2026-05-05 09:34 54.70822 -6.55875 30383 ft 364 kts 313°
2026-05-05 09:34 54.74351 -6.62053 30378 ft 363 kts 313°
2026-05-05 09:35 54.77892 -6.68268 30380 ft 363 kts 313°
2026-05-05 09:35 54.83214 -6.77640 30397 ft 363 kts 313°
2026-05-05 09:36 54.86729 -6.83850 30387 ft 359 kts 313°
2026-05-05 09:36 54.90218 -6.90031 30391 ft 361 kts 313°
2026-05-05 09:37 54.93729 -6.96268 30390 ft 361 kts 313°
2026-05-05 09:37 54.97253 -7.02542 30394 ft 362 kts 312°
2026-05-05 09:38 55.00767 -7.08816 30386 ft 363 kts 313°
2026-05-05 09:38 55.04287 -7.15118 30393 ft 361 kts 313°
2026-05-05 09:39 55.07716 -7.21417 30399 ft 360 kts 311°
2026-05-05 09:39 55.11136 -7.27764 30395 ft 359 kts 312°
2026-05-05 09:40 55.14588 -7.34159 30402 ft 362 kts 311°
2026-05-05 09:40 55.18003 -7.40512 30400 ft 361 kts 312°
2026-05-05 09:41 55.21435 -7.46911 30404 ft 361 kts 312°
2026-05-05 09:41 55.24865 -7.53325 30411 ft 361 kts 311°
2026-05-05 09:42 55.28290 -7.59744 30414 ft 359 kts 311°
2026-05-05 09:42 55.31706 -7.66167 30420 ft 362 kts 311°
2026-05-05 09:43 55.35138 -7.72636 30432 ft 361 kts 311°
2026-05-05 09:43 55.38530 -7.79048 30421 ft 360 kts 311°
2026-05-05 09:44 55.41950 -7.85530 30428 ft 362 kts 311°
2026-05-05 09:44 55.45368 -7.92023 30427 ft 361 kts 311°
2026-05-05 09:45 55.48776 -7.98518 30429 ft 361 kts 311°
2026-05-05 09:45 55.52163 -8.04993 30441 ft 362 kts 311°
2026-05-05 09:46 55.55568 -8.11515 30440 ft 360 kts 311°
2026-05-05 09:46 55.58958 -8.18030 30441 ft 361 kts 311°
2026-05-05 09:47 55.62354 -8.24573 30448 ft 361 kts 311°
2026-05-05 09:47 55.65741 -8.31116 30445 ft 360 kts 311°
2026-05-05 09:48 55.69102 -8.37628 30447 ft 361 kts 311°
2026-05-05 09:48 55.72488 -8.44206 30445 ft 361 kts 311°
2026-05-05 09:49 55.75860 -8.50774 30442 ft 360 kts 311°
2026-05-05 09:49 55.79239 -8.57376 30450 ft 361 kts 311°
2026-05-05 09:50 55.82593 -8.63946 30453 ft 360 kts 311°
2026-05-05 09:50 55.85953 -8.70545 30451 ft 361 kts 310°
2026-05-05 09:51 55.89325 -8.77186 30452 ft 361 kts 310°
2026-05-05 09:51 55.92687 -8.83829 30449 ft 360 kts 310°
2026-05-05 09:52 55.96036 -8.90463 30449 ft 361 kts 310°
2026-05-05 09:52 55.99376 -8.97098 30467 ft 361 kts 310°
2026-05-05 09:53 56.02708 -9.03735 30462 ft 358 kts 310°
2026-05-05 09:53 56.06047 -9.10405 30468 ft 361 kts 310°
2026-05-05 09:54 56.09383 -9.17087 30467 ft 358 kts 310°
2026-05-05 09:54 56.12696 -9.23743 30465 ft 359 kts 310°
2026-05-05 09:55 56.16002 -9.30403 30471 ft 360 kts 310°
2026-05-05 09:55 56.19319 -9.37102 30468 ft 358 kts 310°
2026-05-05 09:56 56.22629 -9.43809 30482 ft 359 kts 309°
2026-05-05 09:56 56.25935 -9.50524 30482 ft 357 kts 309°
2026-05-05 09:57 56.29199 -9.57175 30485 ft 358 kts 309°
2026-05-05 09:57 56.32496 -9.63910 30489 ft 358 kts 309°
2026-05-05 09:58 56.35780 -9.70638 30492 ft 357 kts 309°
2026-05-05 09:58 56.39062 -9.77383 30492 ft 358 kts 309°
2026-05-05 09:59 56.42349 -9.84154 30488 ft 358 kts 309°
2026-05-05 09:59 56.45595 -9.90863 30486 ft 357 kts 309°
2026-05-05 10:00 56.48865 -9.97638 30310 ft 356 kts 309°
2026-05-05 10:00 56.52255 -10.04077 30204 ft 353 kts 312°
2026-05-05 10:01 56.55695 -10.10504 30203 ft 357 kts 312°
2026-05-05 10:01 56.59177 -10.16902 30215 ft 355 kts 312°
2026-05-05 10:02 56.60892 -10.20081 30409 ft 350 kts 312°
2026-05-05 10:02 56.62581 -10.23216 30656 ft 355 kts 312°
2026-05-05 10:02 56.64324 -10.26455 30928 ft 361 kts 312°
2026-05-05 10:02 56.66078 -10.29713 31193 ft 360 kts 312°
2026-05-05 10:03 56.67832 -10.32974 31433 ft 360 kts 312°
2026-05-05 10:03 56.69577 -10.36229 31690 ft 361 kts 312°
2026-05-05 10:03 56.71338 -10.39520 31962 ft 363 kts 312°
2026-05-05 10:03 56.73108 -10.42825 32126 ft 366 kts 312°
2026-05-05 10:04 56.74862 -10.46106 32145 ft 354 kts 312°
2026-05-05 10:04 56.76558 -10.49283 32141 ft 346 kts 311°
2026-05-05 10:04 56.79909 -10.55589 32179 ft 353 kts 311°
2026-05-05 10:05 56.83343 -10.62051 32183 ft 354 kts 312°
2026-05-05 10:05 56.86755 -10.68499 32184 ft 352 kts 311°
2026-05-05 10:06 56.90165 -10.74961 32187 ft 354 kts 311°
2026-05-05 10:06 56.93000 -10.80342 32178 ft 353 kts 311°
2026-05-05 10:07 56.96911 -10.87791 32178 ft 350 kts 311°
2026-05-05 10:07 57.00299 -10.94266 32178 ft 352 kts 311°
2026-05-05 10:08 57.03108 -10.99644 32210 ft 350 kts 311°
2026-05-05 10:08 57.06484 -11.06127 32206 ft 351 kts 311°
2026-05-05 10:09 57.10400 -11.13668 32213 ft 350 kts 311°
2026-05-05 10:09 57.13194 -11.19066 32187 ft 351 kts 311°
2026-05-05 10:10 57.16561 -11.25586 32190 ft 351 kts 311°
2026-05-05 10:10 57.19904 -11.32078 32196 ft 348 kts 311°
2026-05-05 10:11 57.23248 -11.38590 32196 ft 352 kts 311°
2026-05-05 10:11 57.27154 -11.46218 32200 ft 350 kts 311°
2026-05-05 10:12 57.29926 -11.51649 32198 ft 350 kts 310°
2026-05-05 10:12 57.33271 -11.58218 32205 ft 351 kts 310°
2026-05-05 10:13 57.36613 -11.64801 32202 ft 350 kts 310°
2026-05-05 10:13 57.39943 -11.71380 32213 ft 350 kts 310°
2026-05-05 10:14 57.43255 -11.77939 32208 ft 347 kts 310°
2026-05-05 10:14 57.46534 -11.84453 32209 ft 349 kts 310°
2026-05-05 10:15 57.49853 -11.91062 32217 ft 349 kts 310°
2026-05-05 10:15 57.53147 -11.97644 32211 ft 347 kts 310°
2026-05-05 10:16 57.56445 -12.04255 32215 ft 349 kts 310°
2026-05-05 10:16 57.59723 -12.10837 32221 ft 348 kts 310°
2026-05-05 10:17 57.63010 -12.17461 32216 ft 348 kts 310°
2026-05-05 10:17 57.66275 -12.24059 32214 ft 345 kts 309°
2026-05-05 10:18 57.69541 -12.30677 32219 ft 347 kts 309°
2026-05-05 10:18 57.72808 -12.37316 32221 ft 346 kts 309°
2026-05-05 10:19 57.76041 -12.43906 32221 ft 346 kts 309°
2026-05-05 10:19 57.79297 -12.50561 32226 ft 347 kts 309°
2026-05-05 10:20 57.82552 -12.57232 32225 ft 346 kts 309°
2026-05-05 10:20 57.85796 -12.63901 32237 ft 346 kts 309°
2026-05-05 10:21 57.89023 -12.70553 32226 ft 343 kts 309°
2026-05-05 10:21 57.92213 -12.77151 32226 ft 345 kts 309°
2026-05-05 10:22 57.95439 -12.83839 32237 ft 345 kts 309°
2026-05-05 10:22 57.98651 -12.90518 32231 ft 343 kts 309°
2026-05-05 10:23 58.01857 -12.97206 32237 ft 345 kts 309°
2026-05-05 10:23 58.05072 -13.03927 32239 ft 344 kts 309°
2026-05-05 10:24 58.08248 -13.10589 32234 ft 343 kts 309°
2026-05-05 10:24 58.11450 -13.17327 32235 ft 345 kts 309°
2026-05-05 10:25 58.14652 -13.24082 32237 ft 344 kts 309°
2026-05-05 10:25 58.17837 -13.30822 32233 ft 343 kts 308°
2026-05-05 10:26 58.21028 -13.37593 32244 ft 345 kts 308°
2026-05-05 10:26 58.24195 -13.44332 32239 ft 344 kts 308°
2026-05-05 10:27 58.27371 -13.51111 32235 ft 344 kts 308°
2026-05-05 10:27 58.30547 -13.57912 32248 ft 345 kts 308°
2026-05-05 10:28 58.33713 -13.64707 32230 ft 339 kts 308°
2026-05-05 10:28 58.36839 -13.71441 32234 ft 341 kts 308°
2026-05-05 10:29 58.39993 -13.78250 32248 ft 342 kts 308°
2026-05-05 10:29 58.43117 -13.85019 32239 ft 344 kts 308°
2026-05-05 10:30 58.46281 -13.91890 32240 ft 344 kts 308°
2026-05-05 10:30 58.49423 -13.98735 32237 ft 342 kts 308°
2026-05-05 10:31 58.52526 -14.05661 32248 ft 344 kts 307°
2026-05-05 10:31 58.55589 -14.12618 32241 ft 342 kts 307°
2026-05-05 10:32 58.58629 -14.19492 32236 ft 337 kts 307°
2026-05-05 10:32 58.61675 -14.26422 32252 ft 342 kts 307°
2026-05-05 10:33 58.64729 -14.33379 32250 ft 339 kts 307°
2026-05-05 10:33 58.67760 -14.40313 32247 ft 340 kts 307°
2026-05-05 10:34 58.70804 -14.47292 32255 ft 341 kts 307°
2026-05-05 10:34 58.73820 -14.54226 32251 ft 339 kts 307°
2026-05-05 10:35 58.76845 -14.61205 32254 ft 340 kts 306°
2026-05-05 10:35 58.79866 -14.68193 32253 ft 337 kts 306°
2026-05-05 10:36 58.82868 -14.75164 32252 ft 340 kts 306°
2026-05-05 10:37 58.89214 -14.89959 32258 ft 339 kts 306°
2026-05-05 10:37 58.92223 -14.97008 32263 ft 340 kts 306°
2026-05-05 10:38 58.95223 -15.04053 32261 ft 338 kts 306°
2026-05-05 10:38 58.98212 -15.11098 32261 ft 339 kts 306°
2026-05-05 10:39 59.01206 -15.18177 32258 ft 339 kts 306°
2026-05-05 10:39 59.04134 -15.25116 32252 ft 332 kts 305°
2026-05-05 10:40 59.07082 -15.32130 32269 ft 337 kts 305°
2026-05-05 10:40 59.10040 -15.39180 32267 ft 335 kts 305°
2026-05-05 10:41 59.12958 -15.46165 32264 ft 336 kts 305°
2026-05-05 10:41 59.15907 -15.53240 32271 ft 336 kts 305°
2026-05-05 10:42 59.20323 -15.63877 32266 ft 338 kts 305°
2026-05-05 10:43 59.23271 -15.71004 32284 ft 337 kts 305°
2026-05-05 10:43 59.26190 -15.78078 32269 ft 332 kts 305°
2026-05-05 10:44 59.29077 -15.85106 32274 ft 336 kts 305°
2026-05-05 10:44 59.31995 -15.92224 32280 ft 334 kts 305°
2026-05-05 10:45 59.34878 -15.99281 32275 ft 334 kts 304°
2026-05-05 10:45 59.37783 -16.06409 32281 ft 335 kts 304°
2026-05-05 10:46 59.40198 -16.12354 32279 ft 334 kts 304°
2026-05-05 10:46 59.43555 -16.20644 32279 ft 334 kts 304°
2026-05-05 10:47 59.46453 -16.27822 32275 ft 335 kts 304°
2026-05-05 10:47 59.48843 -16.33756 32276 ft 331 kts 304°
2026-05-05 10:48 59.51714 -16.40912 32277 ft 335 kts 304°
2026-05-05 10:48 59.54596 -16.48111 32283 ft 333 kts 304°
2026-05-05 10:49 59.57469 -16.55317 32285 ft 335 kts 304°
2026-05-05 10:49 59.60350 -16.62558 32291 ft 335 kts 304°
2026-05-05 10:50 59.63195 -16.69731 32289 ft 334 kts 304°
2026-05-05 10:50 59.66064 -16.76992 32292 ft 336 kts 304°
2026-05-05 10:51 59.68931 -16.84266 32281 ft 335 kts 305°
2026-05-05 10:51 59.71784 -16.91531 32278 ft 335 kts 305°
2026-05-05 10:52 59.74652 -16.98855 32285 ft 336 kts 305°
2026-05-05 10:52 59.77494 -17.06132 32285 ft 335 kts 305°
2026-05-05 10:53 59.80344 -17.13456 32280 ft 335 kts 305°
2026-05-05 10:53 59.83195 -17.20806 32284 ft 336 kts 305°
2026-05-05 10:54 59.86042 -17.28169 32287 ft 335 kts 305°
2026-05-05 10:54 59.88862 -17.35483 32282 ft 335 kts 305°
2026-05-05 10:55 59.91709 -17.42892 32290 ft 340 kts 307°
2026-05-05 10:55 59.94593 -17.50421 32299 ft 342 kts 307°
2026-05-05 10:56 59.97455 -17.57917 32289 ft 338 kts 307°
2026-05-05 10:56 60.00315 -17.65432 32291 ft 341 kts 306°
2026-05-05 10:57 60.03157 -17.72922 32295 ft 340 kts 306°
2026-05-05 10:57 60.06004 -17.80450 32289 ft 339 kts 306°
2026-05-05 10:58 60.08855 -17.88014 32301 ft 341 kts 306°
2026-05-05 10:58 60.11699 -17.95584 32314 ft 339 kts 306°
2026-05-05 10:59 60.14524 -18.03126 32296 ft 335 kts 306°
2026-05-05 10:59 60.17321 -18.10618 32295 ft 337 kts 306°
2026-05-05 11:00 60.20113 -18.18124 32295 ft 337 kts 306°
2026-05-05 11:00 60.22899 -18.25634 32289 ft 335 kts 306°
2026-05-05 11:01 60.25699 -18.33208 32298 ft 338 kts 306°
2026-05-05 11:01 60.28490 -18.40784 32307 ft 337 kts 306°
2026-05-05 11:02 60.31282 -18.48382 32284 ft 340 kts 306°
2026-05-05 11:02 60.34076 -18.56015 32280 ft 337 kts 306°
2026-05-05 11:03 60.36862 -18.63651 32286 ft 339 kts 306°
2026-05-05 11:03 60.39652 -18.71320 32288 ft 338 kts 306°
2026-05-05 11:04 60.42423 -18.78964 32286 ft 337 kts 306°
2026-05-05 11:04 60.45183 -18.86601 32296 ft 339 kts 306°
2026-05-05 11:05 60.47955 -18.94298 32295 ft 337 kts 306°
2026-05-05 11:05 60.50712 -19.01983 32302 ft 337 kts 306°
2026-05-05 11:06 60.53453 -19.09734 32301 ft 338 kts 306°
2026-05-05 11:06 60.56183 -19.17460 32305 ft 332 kts 305°
2026-05-05 11:07 60.58799 -19.24885 32292 ft 323 kts 305°
2026-05-05 11:07 60.61450 -19.32441 32301 ft 330 kts 305°
2026-05-05 11:08 60.64106 -19.40029 32297 ft 328 kts 306°
2026-05-05 11:08 60.66766 -19.47660 32306 ft 331 kts 306°
2026-05-05 11:09 60.69422 -19.55302 32293 ft 329 kts 305°
2026-05-05 11:09 60.72052 -19.62893 32292 ft 330 kts 305°
2026-05-05 11:10 60.74705 -19.70574 32294 ft 331 kts 305°
2026-05-05 11:10 60.77342 -19.78238 32308 ft 329 kts 305°
2026-05-05 11:11 60.79943 -19.85822 32299 ft 323 kts 305°
2026-05-05 11:11 60.82521 -19.93359 32299 ft 327 kts 305°
2026-05-05 11:12 60.85129 -20.01010 32300 ft 326 kts 305°
2026-05-05 11:12 60.87711 -20.08613 32299 ft 325 kts 305°
2026-05-05 11:13 60.90301 -20.16262 32300 ft 327 kts 305°
2026-05-05 11:13 60.92869 -20.23872 32303 ft 325 kts 305°
2026-05-05 11:14 60.95441 -20.31521 32302 ft 326 kts 305°
2026-05-05 11:14 60.98022 -20.39216 32320 ft 326 kts 304°
2026-05-05 11:15 61.00581 -20.46880 32282 ft 324 kts 305°
2026-05-05 11:15 61.03134 -20.54543 32284 ft 325 kts 305°
2026-05-05 11:16 61.05675 -20.62199 32285 ft 325 kts 305°
2026-05-05 11:16 61.08217 -20.69883 32285 ft 324 kts 305°
2026-05-05 11:17 61.10757 -20.77588 32284 ft 325 kts 305°
2026-05-05 11:17 61.13303 -20.85335 32287 ft 325 kts 305°
2026-05-05 11:18 61.15831 -20.93054 32284 ft 324 kts 304°
2026-05-05 11:18 61.18344 -21.00749 32286 ft 325 kts 304°
2026-05-05 11:19 61.20866 -21.08503 32299 ft 320 kts 304°
2026-05-05 11:19 61.23339 -21.16129 32287 ft 320 kts 304°
2026-05-05 11:20 61.25834 -21.23849 32291 ft 322 kts 304°
2026-05-05 11:20 61.28299 -21.31501 32287 ft 320 kts 304°
2026-05-05 11:21 61.30774 -21.39209 32289 ft 321 kts 304°
2026-05-05 11:21 61.33253 -21.46959 32269 ft 321 kts 304°
2026-05-05 11:22 61.35733 -21.54736 32278 ft 326 kts 304°
2026-05-05 11:22 61.38238 -21.62618 32272 ft 324 kts 304°
2026-05-05 11:23 61.40695 -21.70375 32288 ft 322 kts 304°
2026-05-05 11:23 61.43140 -21.78124 32276 ft 318 kts 304°
2026-05-05 11:24 61.45578 -21.85870 32284 ft 321 kts 304°
2026-05-05 11:24 61.48023 -21.93670 32292 ft 320 kts 304°
2026-05-05 11:25 61.50470 -22.01407 32273 ft 319 kts 306°
2026-05-05 11:25 61.52949 -22.09083 32280 ft 321 kts 304°
2026-05-05 11:26 61.55443 -22.16806 32280 ft 319 kts 305°
2026-05-05 11:26 61.57928 -22.24515 32273 ft 319 kts 305°
2026-05-05 11:27 61.60400 -22.32221 32286 ft 320 kts 305°
2026-05-05 11:27 61.62866 -22.39926 32264 ft 312 kts 305°
2026-05-05 11:28 61.65283 -22.47507 32266 ft 314 kts 305°
2026-05-05 11:28 61.67707 -22.55133 32272 ft 315 kts 305°
2026-05-05 11:29 61.70130 -22.62783 32266 ft 313 kts 305°
2026-05-05 11:29 61.72549 -22.70443 32268 ft 315 kts 304°
2026-05-05 11:30 61.74969 -22.78135 32268 ft 314 kts 304°
2026-05-05 11:30 61.77360 -22.85759 32264 ft 313 kts 304°
2026-05-05 11:31 61.79770 -22.93467 32268 ft 315 kts 304°
2026-05-05 11:31 61.82174 -23.01186 32275 ft 313 kts 304°
2026-05-05 11:32 61.84515 -23.08727 32255 ft 304 kts 304°
2026-05-05 11:32 61.86861 -23.16306 32253 ft 310 kts 304°
2026-05-05 11:33 61.89195 -23.23876 32252 ft 307 kts 304°
2026-05-05 11:33 61.91525 -23.31454 32252 ft 308 kts 304°
2026-05-05 11:34 61.93868 -23.39098 32260 ft 309 kts 304°
2026-05-05 11:34 61.96197 -23.46728 32254 ft 307 kts 304°
2026-05-05 11:35 61.98518 -23.54354 32256 ft 309 kts 304°
2026-05-05 11:35 62.00832 -23.61980 32258 ft 308 kts 304°
2026-05-05 11:36 62.03136 -23.69606 32217 ft 302 kts 304°
2026-05-05 11:36 62.05402 -23.77119 32246 ft 304 kts 304°
2026-05-05 11:37 62.07689 -23.84738 32249 ft 304 kts 304°
2026-05-05 11:37 62.09940 -23.92256 32270 ft 303 kts 304°
2026-05-05 11:38 62.12216 -23.99886 32267 ft 305 kts 304°
2026-05-05 11:38 62.14482 -24.07508 32266 ft 301 kts 304°
2026-05-05 11:39 62.16739 -24.15119 32248 ft 305 kts 304°
2026-05-05 11:39 62.19001 -24.22781 32249 ft 303 kts 304°
2026-05-05 11:40 62.21232 -24.30359 32249 ft 303 kts 304°
2026-05-05 11:40 62.23476 -24.38006 32259 ft 300 kts 304°
2026-05-05 11:40 62.24572 -24.41757 32254 ft 296 kts 304°
2026-05-05 11:41 62.25668 -24.45505 32252 ft 297 kts 304°
2026-05-05 11:41 62.26771 -24.49281 32258 ft 300 kts 304°
2026-05-05 11:41 62.27878 -24.53086 32260 ft 300 kts 304°
2026-05-05 11:41 62.28982 -24.56882 32260 ft 299 kts 304°
2026-05-05 11:42 62.30079 -24.60665 32262 ft 297 kts 304°
2026-05-05 11:42 62.31159 -24.64388 32251 ft 298 kts 304°
2026-05-05 11:42 62.32255 -24.68180 32254 ft 299 kts 304°
2026-05-05 11:42 62.33356 -24.71991 32259 ft 300 kts 303°
2026-05-05 11:43 62.34452 -24.75794 32260 ft 299 kts 303°
2026-05-05 11:43 62.35547 -24.79595 32257 ft 299 kts 303°
2026-05-05 11:43 62.36640 -24.83402 32258 ft 298 kts 303°
2026-05-05 11:43 62.37730 -24.87199 32214 ft 298 kts 304°
2026-05-05 11:44 62.38818 -24.91000 32260 ft 300 kts 304°
2026-05-05 11:44 62.41001 -24.98641 32256 ft 300 kts 304°
2026-05-05 11:44 62.42088 -25.02457 32256 ft 298 kts 304°
2026-05-05 11:45 62.43171 -25.06265 32252 ft 298 kts 304°
2026-05-05 11:45 62.44258 -25.10090 32252 ft 300 kts 304°
2026-05-05 11:45 62.45350 -25.13941 32250 ft 301 kts 304°
2026-05-05 11:45 62.46438 -25.17788 32257 ft 300 kts 304°
2026-05-05 11:46 62.47525 -25.21633 32255 ft 299 kts 303°
2026-05-05 11:46 62.48590 -25.25411 32256 ft 298 kts 303°
2026-05-05 11:46 62.49670 -25.29244 32256 ft 299 kts 303°
2026-05-05 11:46 62.50752 -25.33093 32252 ft 300 kts 303°
2026-05-05 11:47 62.51837 -25.36961 32257 ft 300 kts 303°
2026-05-05 11:47 62.52916 -25.40811 32256 ft 299 kts 303°
2026-05-05 11:47 62.53992 -25.44663 32263 ft 298 kts 303°
2026-05-05 11:47 62.55066 -25.48508 32260 ft 299 kts 303°
2026-05-05 11:48 62.57220 -25.56242 32254 ft 300 kts 303°
2026-05-05 11:48 62.58284 -25.60073 32252 ft 300 kts 303°
2026-05-05 11:48 62.59355 -25.63936 32248 ft 299 kts 303°
2026-05-05 11:49 62.60424 -25.67797 32252 ft 298 kts 303°
2026-05-05 11:49 62.61495 -25.71671 32272 ft 299 kts 303°
2026-05-05 11:49 62.62562 -25.75540 32247 ft 297 kts 303°
2026-05-05 11:49 62.63615 -25.79364 32239 ft 294 kts 303°
2026-05-05 11:50 62.64662 -25.83175 32234 ft 294 kts 303°
2026-05-05 11:50 62.65715 -25.87006 32240 ft 296 kts 303°
2026-05-05 11:50 62.66773 -25.90870 32246 ft 297 kts 303°
2026-05-05 11:50 62.67830 -25.94735 32247 ft 296 kts 303°
2026-05-05 11:51 62.68867 -25.98532 32242 ft 295 kts 303°
2026-05-05 11:51 62.69920 -26.02354 32245 ft 294 kts 304°
2026-05-05 11:51 62.71018 -26.06136 32246 ft 296 kts 304°
2026-05-05 11:51 62.72094 -26.09919 32247 ft 293 kts 304°
2026-05-05 11:52 62.73170 -26.13695 32237 ft 293 kts 304°
2026-05-05 11:52 62.74252 -26.17480 32239 ft 295 kts 304°
2026-05-05 11:52 62.75333 -26.21271 32242 ft 295 kts 304°
2026-05-05 11:52 62.76416 -26.25073 32242 ft 294 kts 304°
2026-05-05 11:53 62.77475 -26.28803 32241 ft 293 kts 304°
2026-05-05 11:53 62.78550 -26.32589 32239 ft 293 kts 304°
2026-05-05 11:53 62.79623 -26.36379 32240 ft 294 kts 304°
2026-05-05 11:53 62.80699 -26.40186 32243 ft 295 kts 304°
2026-05-05 11:54 62.81776 -26.43999 32259 ft 295 kts 303°
2026-05-05 11:54 62.82850 -26.47814 32245 ft 293 kts 303°
2026-05-05 11:54 62.83915 -26.51599 32241 ft 292 kts 303°
2026-05-05 11:54 62.84964 -26.55333 32241 ft 292 kts 303°
2026-05-05 11:55 62.86030 -26.59137 32248 ft 294 kts 303°
2026-05-05 11:55 62.87114 -26.63003 31979 ft 299 kts 303°
2026-05-05 11:55 62.88188 -26.66854 31704 ft 293 kts 303°
2026-05-05 11:55 62.89237 -26.70619 31435 ft 286 kts 303°
2026-05-05 11:56 62.90269 -26.74321 31129 ft 283 kts 303°
2026-05-05 11:56 62.91290 -26.77992 30855 ft 282 kts 303°
2026-05-05 11:56 62.92308 -26.81658 30586 ft 281 kts 303°
2026-05-05 11:56 62.93323 -26.85322 30340 ft 279 kts 303°
2026-05-05 11:57 62.94301 -26.88860 30262 ft 272 kts 303°
2026-05-05 11:57 62.95282 -26.92410 30246 ft 274 kts 303°
2026-05-05 11:57 62.96279 -26.96021 30250 ft 278 kts 303°
2026-05-05 11:57 62.97288 -26.99683 30249 ft 280 kts 303°
2026-05-05 11:58 62.98291 -27.03335 30251 ft 278 kts 303°
2026-05-05 11:58 62.99288 -27.06967 30247 ft 277 kts 303°
2026-05-05 11:58 63.00280 -27.10589 30239 ft 277 kts 303°
2026-05-05 11:58 63.01279 -27.14238 30256 ft 279 kts 303°
2026-05-05 11:59 63.02275 -27.17886 30249 ft 276 kts 303°
2026-05-05 11:59 63.03260 -27.21500 30229 ft 274 kts 303°
2026-05-05 11:59 63.04227 -27.25050 30229 ft 275 kts 303°
2026-05-05 11:59 63.05213 -27.28678 30229 ft 277 kts 303°
2026-05-05 12:00 63.06203 -27.32325 30226 ft 277 kts 302°
2026-05-05 12:00 63.07179 -27.35929 30214 ft 270 kts 303°
2026-05-05 12:00 63.08146 -27.39505 30240 ft 274 kts 303°
2026-05-05 12:00 63.09134 -27.43156 30249 ft 278 kts 302°
2026-05-05 12:01 63.10117 -27.46807 30245 ft 276 kts 302°
2026-05-05 12:01 63.11093 -27.50435 30238 ft 274 kts 302°
2026-05-05 12:01 63.12053 -27.54006 30234 ft 274 kts 302°
2026-05-05 12:01 63.13028 -27.57637 30237 ft 276 kts 302°
2026-05-05 12:02 63.14009 -27.61298 30238 ft 276 kts 302°